Change the Weather History Date:

Sunday, March 30, 2014

  Actual Average Record
Temperature  
Mean Temperature 55 °F -  
Max Temperature 68 °F 72 °F 84 °F (2012)
Min Temperature 42 °F 48 °F 42 °F (2014)
Degree Days  
Heating Degree Days 10    
Growing Degree Days 5 (Base 50)    
Moisture  
Dew Point 36 °F    
Average Humidity 54    
Maximum Humidity 81    
Minimum Humidity 28    
Precipitation  
Precipitation 0.00 in - - ()
Sea Level Pressure  
Sea Level Pressure 29.96 in    
Wind  
Wind Speed 14 mph (WNW)    
Max Wind Speed 24 mph    
Max Gust Speed 33 mph    
Visibility 10 miles    
Events      
Averages and records for this station are not official NWS values.
T = Trace of Precipitation, MM = Missing Value Source: NWS Daily Summary

Daily Weather History Graph

Daily Weather History Graph

Search for Another Location

Airport or City:

Trip Planner

Search our weather history database for the weather conditions in past years. The results will help you decide how hot, cold, wet, or windy it might be!

Date:

Astronomy

Mar. 30, 2014 Rise Set
Actual Time 7:16 AM EDT 7:45 PM EDT
Civil Twilight 6:51 AM EDT 8:10 PM EDT
Nautical Twilight 6:22 AM EDT 8:40 PM EDT
Astronomical Twilight 5:52 AM EDT 9:10 PM EDT
Moon 7:01 AM EDT (3/30) 7:55 PM EDT (3/30)
Length of Visible Light 13h 18m
Length of Day
12h 28m
Waning Crescent, 0% of the Moon is Illuminated
Mar 30
Waning Crescent
Mar 30
New
Apr 7
First Quarter
Apr 15
Full
Apr 22
Last Quarter

Hourly Weather History & Observations

Time (EDT) Temp. Windchill Dew Point Humidity Pressure Visibility Wind Dir Wind Speed Gust Speed Precip Events Conditions
12:15 AM 51.8 °F - 42.8 °F 71% 29.84 in 10.0 mi West 15.0 mph 26.5 mph N/A   Clear
12:35 AM 51.8 °F - 42.8 °F 71% 29.84 in 10.0 mi West 18.4 mph 26.5 mph N/A   Clear
12:55 AM 51.8 °F - 41.0 °F 67% 29.85 in 10.0 mi West 21.9 mph 29.9 mph N/A   Clear
1:15 AM 50.0 °F - 42.8 °F 76% 29.85 in 10.0 mi West 23.0 mph 29.9 mph N/A   Clear
1:35 AM 50.0 °F - 41.0 °F 71% 29.85 in 10.0 mi West 15.0 mph 24.2 mph N/A   Clear
1:55 AM 50.0 °F - 41.0 °F 71% 29.85 in 10.0 mi West 17.3 mph 25.3 mph N/A   Clear
2:15 AM 48.2 °F - 39.2 °F 71% 29.85 in 10.0 mi West 15.0 mph 23.0 mph N/A   Clear
2:35 AM 48.2 °F - 39.2 °F 71% 29.86 in 10.0 mi West 13.8 mph 20.7 mph N/A   Clear
2:55 AM 46.4 °F 40.4 °F 39.2 °F 76% 29.85 in 10.0 mi West 13.8 mph - N/A   Clear
3:15 AM 46.4 °F 41.9 °F 39.2 °F 76% 29.86 in 10.0 mi West 9.2 mph 20.7 mph N/A   Clear
3:35 AM 46.4 °F 41.1 °F 39.2 °F 76% 29.86 in 10.0 mi West 11.5 mph 19.6 mph N/A   Clear
3:55 AM 46.4 °F 40.4 °F 39.2 °F 76% 29.86 in 10.0 mi West 13.8 mph 17.3 mph N/A   Clear
4:15 AM 44.6 °F 38.1 °F 37.4 °F 76% 29.86 in 10.0 mi West 13.8 mph 20.7 mph N/A   Clear
4:35 AM 44.6 °F 38.4 °F 37.4 °F 76% 29.87 in 10.0 mi West 12.7 mph 20.7 mph N/A   Clear
4:55 AM 44.6 °F 38.1 °F 37.4 °F 76% 29.87 in 10.0 mi West 13.8 mph 20.7 mph N/A   Scattered Clouds
5:15 AM 44.6 °F 38.4 °F 37.4 °F 76% 29.88 in 10.0 mi West 12.7 mph 18.4 mph N/A   Scattered Clouds
5:35 AM 44.6 °F 38.8 °F 37.4 °F 76% 29.88 in 10.0 mi West 11.5 mph 20.7 mph N/A   Clear
5:55 AM 44.6 °F 38.1 °F 37.4 °F 76% 29.88 in 10.0 mi West 13.8 mph 19.6 mph N/A   Clear
6:15 AM 42.8 °F 37.0 °F 37.4 °F 81% 29.90 in 10.0 mi West 10.4 mph 20.7 mph N/A   Clear
6:35 AM 42.8 °F 36.2 °F 37.4 °F 81% 29.90 in 10.0 mi West 12.7 mph 18.4 mph N/A   Clear
6:55 AM 42.8 °F 36.2 °F 37.4 °F 81% 29.91 in 10.0 mi West 12.7 mph - N/A   Clear
7:15 AM 42.8 °F 35.8 °F 37.4 °F 81% 29.92 in 10.0 mi West 13.8 mph 20.7 mph N/A   Clear
7:35 AM 44.6 °F 38.4 °F 35.6 °F 71% 29.94 in 10.0 mi West 12.7 mph - N/A   Clear
7:55 AM 44.6 °F 38.1 °F 37.4 °F 76% 29.95 in 10.0 mi West 13.8 mph 19.6 mph N/A   Clear
8:15 AM 46.4 °F 39.8 °F 37.4 °F 71% 29.95 in 10.0 mi WNW 16.1 mph 21.9 mph N/A   Clear
8:35 AM 46.4 °F 41.5 °F 37.4 °F 71% 29.96 in 10.0 mi WNW 10.4 mph 21.9 mph N/A   Clear
8:55 AM 48.2 °F - 37.4 °F 66% 29.97 in 10.0 mi West 17.3 mph 24.2 mph N/A   Clear
9:15 AM 50.0 °F - 37.4 °F 62% 29.98 in 10.0 mi WNW 19.6 mph 24.2 mph N/A   Clear
9:35 AM 50.0 °F - 37.4 °F 62% 29.98 in 10.0 mi WNW 13.8 mph 24.2 mph N/A   Clear
9:55 AM 51.8 °F - 37.4 °F 58% 29.99 in 10.0 mi WNW 15.0 mph 25.3 mph N/A   Clear
10:15 AM 51.8 °F - 37.4 °F 58% 29.99 in 10.0 mi WNW 16.1 mph 21.9 mph N/A   Clear
10:35 AM 53.6 °F - 37.4 °F 54% 29.99 in 10.0 mi WNW 15.0 mph 20.7 mph N/A   Clear
10:55 AM 53.6 °F - 37.4 °F 54% 29.99 in 10.0 mi NNW 15.0 mph 24.2 mph N/A   Clear
11:15 AM 55.4 °F - 35.6 °F 47% 30.00 in 10.0 mi WNW 18.4 mph 27.6 mph N/A   Clear
11:35 AM 57.2 °F - 35.6 °F 44% 30.00 in 10.0 mi WNW 18.4 mph 26.5 mph N/A   Clear
11:55 AM 59.0 °F - 35.6 °F 42% 30.00 in 10.0 mi WNW 20.7 mph 27.6 mph N/A   Clear
12:15 PM 59.0 °F - 37.4 °F 45% 30.01 in 10.0 mi WNW 17.3 mph 21.9 mph N/A   Clear
12:35 PM 60.8 °F - 35.6 °F 39% 30.00 in 10.0 mi NW 13.8 mph 28.8 mph N/A   Clear
12:55 PM 62.6 °F - 35.6 °F 37% 30.00 in 10.0 mi NNW 18.4 mph 29.9 mph N/A   Clear
1:15 PM 62.6 °F - 35.6 °F 37% 29.99 in 10.0 mi NNW 24.2 mph 33.4 mph N/A   Clear
1:35 PM 62.6 °F - 33.8 °F 34% 29.99 in 10.0 mi NNW 23.0 mph 31.1 mph N/A   Clear
1:55 PM 62.6 °F - 33.8 °F 34% 29.99 in 10.0 mi NNW 19.6 mph 32.2 mph N/A   Clear
2:15 PM 64.4 °F - 33.8 °F 32% 29.99 in 10.0 mi NNW 15.0 mph 26.5 mph N/A   Clear
2:35 PM 64.4 °F - 32.0 °F 30% 29.98 in 10.0 mi NNW 17.3 mph 29.9 mph N/A   Clear
2:55 PM 64.4 °F - 33.8 °F 32% 29.98 in 10.0 mi NNW 16.1 mph 27.6 mph N/A   Clear
3:15 PM 66.2 °F - 32.0 °F 28% 29.98 in 10.0 mi NW 17.3 mph 23.0 mph N/A   Clear
3:35 PM 66.2 °F - 32.0 °F 28% 29.97 in 10.0 mi NNW 19.6 mph 23.0 mph N/A   Clear
3:55 PM 68.0 °F - 33.8 °F 28% 29.97 in 10.0 mi NW 15.0 mph 26.5 mph N/A   Clear
4:15 PM 68.0 °F - 35.6 °F 30% 29.97 in 10.0 mi WNW 13.8 mph 24.2 mph N/A   Clear
4:35 PM 68.0 °F - 33.8 °F 28% 29.96 in 10.0 mi NW 13.8 mph 26.5 mph N/A   Clear
4:55 PM 68.0 °F - 35.6 °F 30% 29.96 in 10.0 mi WNW 17.3 mph 24.2 mph N/A   Clear
5:15 PM 68.0 °F - 35.6 °F 30% 29.97 in 10.0 mi NW 12.7 mph 23.0 mph N/A   Clear
5:35 PM 68.0 °F - 35.6 °F 30% 29.97 in 10.0 mi WNW 18.4 mph 25.3 mph N/A   Clear
5:55 PM 68.0 °F - 33.8 °F 28% 29.97 in 10.0 mi NW 11.5 mph 23.0 mph N/A   Clear
6:15 PM 68.0 °F - 33.8 °F 28% 29.98 in 10.0 mi WNW 11.5 mph 20.7 mph N/A   Clear
6:35 PM 68.0 °F - 33.8 °F 28% 29.98 in 10.0 mi West 10.4 mph - N/A   Clear
6:55 PM 66.2 °F - 33.8 °F 30% 29.99 in 10.0 mi WNW 12.7 mph 18.4 mph N/A   Clear
7:15 PM 64.4 °F - 33.8 °F 32% 30.00 in 10.0 mi NW 6.9 mph - N/A   Clear
7:35 PM 62.6 °F - 33.8 °F 34% 30.01 in 10.0 mi Calm Calm - N/A   Clear
7:55 PM 62.6 °F - 33.8 °F 34% 30.01 in 10.0 mi Calm Calm - N/A   Clear
8:15 PM 59.0 °F - 33.8 °F 39% 30.02 in 10.0 mi Calm Calm - N/A   Clear
8:35 PM 59.0 °F - 33.8 °F 39% 30.04 in 10.0 mi Calm Calm - N/A   Clear
8:55 PM 55.4 °F - 33.8 °F 44% 30.05 in 10.0 mi Calm Calm - N/A   Clear
9:15 PM 55.4 °F - 32.0 °F 41% 30.05 in 10.0 mi Calm Calm - N/A   Clear
9:35 PM 51.8 °F - 33.8 °F 50% 30.05 in 10.0 mi Calm Calm - N/A   Clear
9:55 PM 51.8 °F - 32.0 °F 47% 30.06 in 10.0 mi Calm Calm - N/A   Clear
10:15 PM 51.8 °F - 32.0 °F 47% 30.07 in 10.0 mi Calm Calm - N/A   Clear
10:35 PM 51.8 °F - 32.0 °F 47% 30.07 in 10.0 mi Calm Calm - N/A   Clear
10:55 PM 48.2 °F - 33.8 °F 58% 30.08 in 10.0 mi Calm Calm - N/A   Clear
11:15 PM 46.4 °F - 33.8 °F 62% 30.08 in 10.0 mi Calm Calm - N/A   Clear
11:35 PM 46.4 °F - 33.8 °F 62% 30.09 in 10.0 mi Calm Calm - N/A   Clear
11:55 PM 44.6 °F - 33.8 °F 66% 30.09 in 10.0 mi Calm Calm - N/A   Clear